SCP
0 0 0 0 0 0 0 0 0 0 0 0 0 0 0 0 0 0 0 0 1 1 1 1 1 1 0 0 0 0 0 0 0 0 0 0 0 0 0 0 0 0 0
0 0 0 0 0 0 0 0 0 0 0 0 0 0 0 0 0 0 0 0 1 1 1 1 1 1 0 0 0 0 0 0 0 0 0 0 0 0 0 0 0 0 0
0 0 0 0 0 0 0 0 0 0 0 0 0 0 0 0 0 0 0 0 1 1 1 1 1 1 1 0 0 0 0 0 0 0 0 0 0 0 0 0 0 0 0
0 0 0 0 0 0 0 0 0 0 0 0 0 0 0 0 0 0 0 0 1 1 1 1 1 1 1 1 1 1 1 1 0 0 0 0 0 0 0 0 0 0 0
0 0 0 0 0 0 0 0 0 0 0 0 0 0 0 0 0 0 0 0 1 1 1 1 1 1 1 1 1 1 1 1 1 1 0 0 0 0 0 0 0 0 0
1 1 1 1 0 0 0 0 0 0 0 0 0 0 0 0 0 0 0 0 0 1 1 1 1 1 0 1 1 1 1 1 1 1 1 0 0 0 0 0 0 0 0
1 1 1 1 1 0 0 0 0 0 0 0 0 0 0 0 0 0 0 0 0 0 0 1 1 0 0 0 0 0 1 1 1 1 1 0 0 0 0 0 0 0 0
1 1 1 1 1 0 0 0 0 0 0 0 0 0 0 0 0 0 0 0 0 0 0 0 0 0 0 0 0 0 1 1 1 0 0 0 0 0 0 0 0 0 0
1 1 1 1 1 1 0 0 0 0 0 0 0 0 0 0 0 0 0 0 0 0 0 0 0 0 0 0 0 0 0 0 0 0 0 0 0 0 0 0 0 0 0
1 1 1 1 1 1 0 0 0 0 0 0 0 0 0 0 0 0 0 0 0 0 0 0 0 0 0 0 0 0 0 0 0 0 0 0 1 1 1 0 0 0 0
1 1 1 1 1 1 1 0 0 0 0 0 0 0 0 0 0 0 0 0 0 0 0 0 0 0 0 0 0 0 0 0 0 0 0 0 1 1 1 1 0 0 0
1 1 1 1 1 1 1 1 0 0 0 0 0 0 0 0 0 0 0 0 0 0 0 0 0 0 0 0 0 0 0 0 0 0 0 0 0 1 1 0 0 0 0
1 1 1 1 1 1 1 1 0 0 0 0 0 0 0 0 0 0 0 0 0 0 0 0 0 0 0 0 0 0 0 0 0 0 0 0 0 0 0 0 0 0 0
1 1 1 1 1 1 1 1 0 0 0 0 0 0 0 0 0 0 0 0 0 0 0 0 0 0 0 0 0 0 0 0 0 0 0 0 0 0 0 0 0 0 0
1 1 1 1 1 0 0 0 0 0 0 0 0 0 0 0 0 0 0 0 0 0 0 0 0 0 0 0 0 0 0 0 0 0 0 0 0 0 0 0 0 0 0
1 1 1 1 0 0 0 0 0 0 0 0 0 0 0 0 0 0 0 0 0 0 0 0 0 0 0 0 0 0 0 0 0 0 0 0 0 0 0 0 0 0 0
1 1 1 1 1 0 0 0 0 0 0 0 0 0 0 0 0 0 0 0 0 0 0 0 0 0 0 0 0 0 0 0 0 0 0 0 0 0 0 0 0 0 0
1 1 1 1 1 0 0 0 0 0 0 0 0 0 0 0 0 0 0 0 0 0 0 0 0 0 0 0 0 0 0 0 0 0 0 0 0 0 0 0 0 0 0
1 1 1 1 1 0 0 0 0 0 0 0 0 0 0 0 0 0 0 0 0 0 0 0 0 0 0 0 0 0 0 0 0 0 0 0 0 0 0 0 0 0 0
0 1 1 1 0 0 0 0 0 0 0 0 0 0 0 0 0 0 0 0 0 0 0 0 0 0 0 0 0 0 0 0 0 0 0 0 0 0 0 0 0 0 0
0 0 0 0 0 0 0 0 0 0 0 0 0 0 0 0 0 0 0 0 0 0 0 0 0 0 0 0 0 0 0 0 0 0 0 0 0 0 0 0 0 0 0
0 0 0 0 0 0 0 0 0 0 0 0 0 0 0 0 0 0 0 0 0 0 0 0 0 0 0 0 0 0 0 0 0 0 0 0 0 0 0 0 0 0 0
0 0 0 0 0 0 0 0 0 0 0 0 0 0 0 0 0 0 0 0 0 0 0 0 0 0 0 0 0 0 0 0 0 0 0 0 0 0 0 0 0 0 0
1 1 0 0 0 0 0 0 0 0 0 0 0 0 0 0 0 0 0 0 0 0 0 0 0 0 0 0 0 0 0 0 0 0 0 0 0 0 0 0 0 0 0
1 1 1 0 0 0 0 0 0 0 0 0 0 0 0 0 0 0 0 0 0 0 0 0 0 0 0 0 0 0 0 0 0 0 0 0 0 0 0 0 0 0 0
1 1 1 0 0 0 0 0 0 0 0 0 0 0 0 0 0 0 0 0 0 0 0 0 0 0 0 0 0 0 0 0 0 0 0 0 0 0 0 0 0 0 0
Wind_Speed
4 4 2 2 2 2 2 2 1 1 1 1 3 5 6 6 4 4 3 10 11 11 12 12 11 11 11 10 10 9 9 9 9 8 8 9 9 9 9 9 8 8 8
5 4 3 3 2 2 2 2 2 2 1 1 3 3 5 6 5 5 4 6 11 11 11 12 12 12 11 11 10 10 9 9 9 8 8 8 9 9 9 9 9 8 7
5 5 3 3 2 2 2 2 2 2 1 2 2 3 3 4 5 5 4 3 4 9 11 12 12 11 11 11 11 10 9 9 8 8 8 8 8 8 8 8 8 8 8
6 5 4 3 2 2 2 2 2 2 2 2 1 1 2 2 4 4 3 3 3 3 7 11 11 11 11 11 10 10 10 9 9 8 8 8 9 9 8 8 8 8 8
6 4 3 2 3 2 2 2 2 2 2 2 1 1 1 2 2 3 3 4 4 3 3 6 9 10 10 10 10 10 10 10 9 9 9 9 9 9 9 8 8 8 8
5 4 3 3 3 3 2 2 2 2 2 2 2 2 1 1 1 2 3 3 3 4 3 3 3 5 8 9 9 9 9 10 10 10 10 10 10 9 9 9 8 9 8
5 4 3 3 3 3 3 3 2 2 1 2 3 2 2 2 1 1 1 2 2 2 3 3 2 2 2 6 6 7 8 9 9 9 9 10 10 9 9 9 9 9 9
5 5 5 4 3 3 3 3 3 2 1 1 3 3 2 3 2 1 1 2 2 1 2 3 3 3 2 1 3 6 7 7 8 8 8 9 9 9 9 10 10 10 10
5 5 5 4 4 3 3 3 3 4 2 0 2 4 3 2 1 2 1 0 1 1 1 2 3 3 3 2 2 4 5 5 6 8 8 8 8 8 8 9 10 10 10
5 5 5 5 4 3 3 3 3 3 3 2 0 1 2 4 3 0 2 1 1 2 2 2 3 3 3 2 3 4 5 5 5 6 7 8 8 8 8 9 9 10 10
4 5 5 5 4 3 4 3 3 3 3 3 2 1 1 1 2 3 1 1 1 1 2 2 2 2 3 3 2 4 5 5 5 6 6 7 7 8 8 9 10 10 10
2 4 5 5 4 4 4 4 3 3 2 3 2 2 2 2 2 3 2 1 1 2 1 1 2 2 2 3 4 5 5 5 5 5 5 6 6 6 6 8 9 9 9
3 4 4 4 4 4 4 4 3 3 3 3 2 2 2 2 2 3 3 2 1 1 1 1 2 2 3 2 3 5 5 5 6 5 5 5 5 5 5 5 6 7 7
4 5 5 5 5 4 4 3 2 2 2 2 2 2 1 1 1 2 3 4 2 1 1 2 1 2 2 3 4 6 3 7 7 7 6 6 6 6 6 6 6 6 6
5 6 6 5 5 4 4 4 2 2 2 2 2 2 2 1 1 1 2 3 5 2 2 2 1 2 2 3 4 3 3 6 8 8 8 8 8 7 7 7 7 7 7
6 7 6 6 5 5 5 4 3 2 3 2 2 2 2 1 1 2 2 2 3 4 2 3 2 2 2 3 5 4 4 7 8 9 9 9 9 9 9 9 8 9 9
7 7 7 6 6 5 5 4 3 3 3 2 2 2 2 1 2 2 2 2 2 3 2 2 1 1 1 2 2 2 3 3 4 9 10 10 10 10 10 10 10 10 10
7 7 7 7 6 6 5 5 5 4 4 4 3 3 2 2 2 1 1 1 1 2 3 2 1 1 2 2 2 3 3 3 4 7 9 10 10 10 11 11 11 11 11
7 7 7 7 6 6 6 5 5 5 5 4 4 4 3 3 2 1 1 1 1 1 2 2 2 1 2 1 1 2 2 2 3 5 7 8 9 10 11 12 12 12 12
7 7 7 7 6 6 6 5 5 5 4 4 4 4 4 4 4 3 2 2 1 1 1 1 1 1 1 1 0 1 2 2 3 3 4 4 6 9 10 12 12 12 13
8 7 6 6 6 5 6 6 5 5 4 4 3 4 4 6 6 5 3 3 2 2 1 1 1 1 1 1 1 1 2 3 3 2 2 3 3 3 5 8 10 12 13
6 6 6 6 6 6 8 10 7 5 5 5 4 3 4 5 6 6 6 7 6 4 3 2 2 3 4 3 2 2 1 1 3 3 1 3 2 4 5 4 8 11 12
6 6 6 6 6 6 9 10 10 6 5 5 5 4 4 4 5 3 4 4 5 7 8 5 4 5 4 4 3 2 3 3 4 4 1 4 3 4 5 6 10 10 10
6 6 6 6 6 7 10 10 10 6 5 5 5 5 4 4 5 5 4 3 4 5 6 6 6 6 6 5 5 4 4 3 4 3 3 3 4 4 5 5 8 10 10
6 6 6 7 7 7 10 11 9 4 4 5 5 5 6 6 9 9 5 5 5 5 7 9 9 8 9 8 5 2 2 1 4 4 3 3 4 3 4 4 6 9 9
7 7 6 7 7 7 10 12 11 4 4 4 4 4 7 7 9 9 6 5 6 6 4 3 4 6 6 7 8 6 5 4 3 4 3 3 3 2 4 4 3 4 5
Wind_Direction
157 159 163 170 175 167 169 172 177 172 136 107 128 136 141 147 154 155 162 171 170 170 169 169 170 170 171 171 171 169 169 168 166 166 167 166 164 164 164 161 159 157 155
157 155 160 167 175 179 175 168 161 151 130 98 107 131 140 149 160 163 170 177 179 178 178 178 178 180 180 178 177 176 177 176 174 175 177 176 173 171 169 170 170 169 166
155 151 154 160 172 170 157 134 123 110 110 100 102 121 130 146 162 173 174 171 180 189 188 186 187 187 188 187 186 184 183 182 182 183 185 184 182 179 177 177 179 180 179
151 144 148 158 154 137 135 129 118 106 92 94 99 123 128 144 163 173 176 174 179 192 199 197 193 194 196 196 195 193 192 191 191 193 192 193 192 190 187 188 188 191 191
144 141 145 147 128 117 123 141 119 123 125 121 133 122 123 144 160 166 174 182 187 191 198 208 202 199 202 204 204 202 200 200 200 200 200 200 201 198 196 197 198 199 200
141 137 137 140 127 116 112 110 116 105 127 136 108 78 69 124 149 159 174 175 184 191 192 202 201 209 211 211 210 210 210 207 206 207 208 209 207 203 202 202 203 204 206
142 139 138 134 131 133 143 134 120 104 88 100 81 46 15 23 81 157 164 158 176 181 173 182 178 188 221 217 213 212 213 214 213 214 215 214 215 211 210 211 210 209 212
150 151 145 144 143 133 128 124 120 115 97 114 119 101 41 2 353 31 139 161 173 165 178 188 179 186 187 190 217 216 217 220 220 220 218 218 219 217 217 219 219 218 218
150 146 148 144 145 140 144 143 135 134 140 95 127 139 146 195 299 341 333 153 164 172 195 190 186 186 190 189 210 229 228 232 234 231 225 220 219 219 219 222 223 225 226
151 149 148 144 143 141 145 148 137 135 135 142 122 141 159 155 146 145 333 327 230 196 203 201 190 192 190 189 210 217 222 225 233 238 236 229 223 221 224 228 232 231 230
152 148 146 142 142 141 143 137 131 130 135 146 153 144 108 98 119 137 188 287 313 274 227 213 196 192 194 195 207 222 221 224 232 241 243 241 236 233 234 236 242 242 240
151 154 146 144 145 144 145 144 141 141 143 142 145 140 145 148 164 150 162 202 237 272 258 236 214 202 197 196 214 212 217 230 236 239 243 242 243 243 241 242 245 248 250
168 173 157 154 151 152 150 142 135 138 144 143 151 154 157 173 162 150 139 155 190 285 297 269 233 208 206 197 221 220 221 224 233 238 243 243 241 244 245 247 254 258 263
175 168 163 163 159 155 153 143 133 142 130 129 133 133 137 169 152 152 151 142 119 343 316 273 273 220 212 203 219 213 227 231 235 238 240 242 243 243 243 244 251 258 265
169 167 165 162 160 156 152 143 139 151 135 130 127 124 120 102 111 129 137 145 145 153 255 269 270 244 215 210 218 209 224 237 236 239 243 245 245 245 245 246 248 253 255
168 163 165 162 159 157 152 144 145 153 142 147 142 121 110 106 91 89 113 123 138 147 193 248 245 247 219 211 214 214 231 244 245 245 246 248 249 249 249 248 248 250 252
167 168 168 167 166 164 160 158 168 166 164 164 153 137 139 126 98 82 86 97 118 135 161 259 271 264 209 228 241 243 245 243 253 251 251 252 251 250 251 251 252 253 253
170 170 168 169 173 171 171 175 185 178 172 170 168 150 160 129 104 98 101 103 132 154 152 186 270 273 247 238 243 253 255 247 248 257 253 252 253 253 253 253 253 254 254
167 168 165 170 177 177 178 184 184 179 179 181 177 172 174 146 141 147 137 143 166 132 132 154 234 264 276 278 288 289 284 287 274 266 258 256 257 258 258 257 257 256 255
168 172 173 177 179 180 181 181 178 175 178 186 185 183 184 176 180 180 174 183 164 120 119 143 214 271 284 304 54 299 309 301 292 291 289 279 270 269 267 265 263 259 256
176 175 172 176 178 179 186 179 179 180 180 187 191 190 194 192 193 189 183 184 161 148 144 148 214 282 282 291 257 247 261 292 294 275 292 291 285 280 276 269 264 260 257
175 173 174 175 182 193 190 185 180 178 180 182 191 204 207 202 202 199 198 193 181 176 183 187 210 222 243 237 235 228 233 297 295 283 268 284 273 273 271 260 259 262 260
175 178 182 179 187 198 193 192 189 174 179 186 187 192 211 210 201 204 215 220 221 215 201 187 203 221 224 222 208 227 228 224 240 255 241 279 276 274 272 272 270 271 268
179 182 185 188 191 203 198 196 193 184 185 191 190 190 199 216 216 204 211 225 239 240 224 209 210 225 227 222 208 211 223 247 269 265 201 254 275 269 278 276 276 272 268
184 186 184 186 192 203 199 197 184 178 190 204 209 205 203 215 227 216 206 221 245 261 254 233 224 233 238 237 221 198 236 251 283 282 215 213 261 275 279 274 275 274 272
186 185 189 192 193 200 202 200 189 183 195 211 222 225 222 221 228 217 205 209 232 249 254 262 252 256 252 252 238 213 210 218 243 272 248 205 246 269 294 278 272 277 279